• In Belarus
  • List of Countries
  • For 7 days
  • Water Temperature
  • Satellite Maps
  • Weather Map
  • Weather Widgets
  • user-avatar
    Login

    Hourly Weather Piraeus

    Today, 22 September, Saturday

    Time Temperature Precipitation Wind Pressure Humidity
    00:00 +24°C° 0 mm 2 mps 760 mmHg 62%
    01:00 +24°C° 0 mm 2 mps 759 mmHg 62%
    02:00 +23°C° 0 mm 2 mps 759 mmHg 64%
    03:00 +23°C° 0 mm 2 mps 759 mmHg 64%
    04:00 +23°C° 0 mm 2 mps 759 mmHg 65%
    05:00 +23°C° 0 mm 2 mps 759 mmHg 65%
    06:00 +23°C° 0 mm 2 mps 759 mmHg 62%
    07:00 +24°C° 0 mm 2 mps 759 mmHg 59%
    08:00 +25°C° 0 mm 2 mps 760 mmHg 58%
    09:00 +26°C° 0 mm 2 mps 760 mmHg 54%
    10:00 +28°C° 0 mm 2 mps 760 mmHg 51%
    11:00 +29°C° 0 mm 2 mps 760 mmHg 48%
    12:00 +29°C° 0 mm 2 mps 760 mmHg 46%
    13:00 +30°C° 0 mm 2 mps 760 mmHg 44%
    14:00 +31°C° 0 mm 2 mps 760 mmHg 42%
    15:00 +30°C° 0 mm 2 mps 760 mmHg 42%
    16:00 +30°C° 0 mm 2 mps 759 mmHg 43%
    17:00 +30°C° 0 mm 2 mps 759 mmHg 43%
    18:00 +29°C° 0 mm 2 mps 759 mmHg 47%
    19:00 +28°C° 0 mm 2 mps 760 mmHg 51%
    20:00 +27°C° 0 mm 1 mps 760 mmHg 55%
    21:00 +26°C° 0 mm 1 mps 760 mmHg 56%
    22:00 +26°C° 0 mm 1 mps 760 mmHg 57%
    23:00 +26°C° 0 mm 1 mps 760 mmHg 59%

    Tomorrow, 23 September, Sunday

    Time Temperature Precipitation Wind Pressure Humidity
    00:00 +25°C° 0 mm 1 mps 760 mmHg 58%
    01:00 +25°C° 0 mm 1 mps 760 mmHg 58%
    02:00 +25°C° 0 mm 1 mps 760 mmHg 58%
    03:00 +24°C° 0 mm 1 mps 760 mmHg 58%
    04:00 +24°C° 0 mm 2 mps 760 mmHg 58%
    05:00 +24°C° 0 mm 2 mps 760 mmHg 58%
    06:00 +25°C° 0 mm 2 mps 760 mmHg 55%
    07:00 +25°C° 0 mm 2 mps 761 mmHg 52%
    08:00 +26°C° 0 mm 2 mps 761 mmHg 50%
    09:00 +28°C° 0 mm 2 mps 761 mmHg 45%
    10:00 +29°C° 0 mm 3 mps 761 mmHg 40%
    11:00 +31°C° 0 mm 3 mps 762 mmHg 36%
    12:00 +31°C° 0 mm 3 mps 762 mmHg 34%
    13:00 +33°C° 0 mm 3 mps 761 mmHg 33%
    14:00 +33°C° 0 mm 3 mps 761 mmHg 32%
    15:00 +33°C° 0 mm 3 mps 761 mmHg 32%
    16:00 +33°C° 0 mm 3 mps 761 mmHg 33%
    17:00 +33°C° 0 mm 3 mps 761 mmHg 34%
    18:00 +30°C° 0 mm 2 mps 761 mmHg 38%
    19:00 +29°C° 0 mm 2 mps 761 mmHg 42%
    20:00 +28°C° 0 mm 1 mps 761 mmHg 46%
    21:00 +27°C° 0 mm 1 mps 761 mmHg 47%
    22:00 +27°C° 0 mm 1 mps 761 mmHg 47%
    23:00 +26°C° 0 mm 1 mps 761 mmHg 48%

    Day after tomorrow, 24 September, Monday

    Time Temperature Precipitation Wind Pressure Humidity
    00:00 +26°C° 0 mm 1 mps 761 mmHg 47%
    01:00 +26°C° 0 mm 1 mps 760 mmHg 47%
    02:00 +25°C° 0 mm 1 mps 760 mmHg 46%
    03:00 +25°C° 0 mm 1 mps 760 mmHg 46%
    04:00 +25°C° 0 mm 1 mps 759 mmHg 46%
    05:00 +24°C° 0 mm 2 mps 759 mmHg 46%
    06:00 +25°C° 0 mm 1 mps 759 mmHg 44%
    07:00 +26°C° 0 mm 1 mps 759 mmHg 42%
    08:00 +27°C° 0 mm 1 mps 759 mmHg 40%
    09:00 +29°C° 0 mm 1 mps 759 mmHg 36%
    10:00 +30°C° 0 mm 1 mps 759 mmHg 33%
    11:00 +31°C° 0 mm 1 mps 759 mmHg 29%
    12:00 +32°C° 0 mm 1 mps 758 mmHg 28%
    13:00 +34°C° 0 mm 2 mps 758 mmHg 26%
    14:00 +34°C° 0 mm 2 mps 758 mmHg 25%
    15:00 +34°C° 0 mm 2 mps 757 mmHg 26%
    16:00 +34°C° 0 mm 2 mps 757 mmHg 28%
    17:00 +33°C° 0 mm 3 mps 756 mmHg 30%
    18:00 +31°C° 0 mm 2 mps 757 mmHg 36%
    19:00 +29°C° 0 mm 2 mps 757 mmHg 41%
    20:00 +28°C° 0 mm 2 mps 757 mmHg 47%
    21:00 +28°C° 0 mm 1 mps 757 mmHg 49%
    22:00 +27°C° 0 mm 1 mps 757 mmHg 52%
    23:00 +27°C° 0 mm 1 mps 757 mmHg 55%

    25 September, Tuesday

    Time Temperature Precipitation Wind Pressure Humidity
    00:00 +26°C° 0 mm 1 mps 757 mmHg 56%
    01:00 +26°C° 0 mm 2 mps 758 mmHg 57%
    02:00 +26°C° 0 mm 2 mps 758 mmHg 58%
    03:00 +26°C° 0 mm 3 mps 758 mmHg 60%
    04:00 +25°C° 0 mm 4 mps 758 mmHg 62%
    05:00 +25°C° 0 mm 5 mps 758 mmHg 64%
    06:00 +24°C° 0 mm 6 mps 759 mmHg 63%
    07:00 +24°C° 0 mm 7 mps 759 mmHg 61%
    08:00 +24°C° 0 mm 8 mps 760 mmHg 60%
    09:00 +26°C° 0 mm 8 mps 760 mmHg 59%
    10:00 +26°C° 0 mm 9 mps 760 mmHg 57%
    11:00 +26°C° 0 mm 9 mps 761 mmHg 56%
    12:00 +26°C° 0 mm 9 mps 761 mmHg 56%
    13:00 +26°C° 0 mm 10 mps 761 mmHg 56%
    14:00 +24°C° 0 mm 10 mps 761 mmHg 56%
    15:00 +24°C° 0 mm 10 mps 761 mmHg 57%
    16:00 +23°C° 0 mm 10 mps 762 mmHg 57%
    17:00 +23°C° 0 mm 10 mps 762 mmHg 57%
    18:00 +22°C° 0 mm 10 mps 762 mmHg 59%
    19:00 +21°C° 0 mm 10 mps 763 mmHg 61%
    20:00 +21°C° 0 mm 10 mps 763 mmHg 63%
    21:00 +19°C° 0 mm 10 mps 764 mmHg 63%
    22:00 +19°C° 0 mm 10 mps 764 mmHg 63%
    23:00 +19°C° 0 mm 10 mps 765 mmHg 63%

    26 September, Wednesday

    Time Temperature Precipitation Wind Pressure Humidity
    00:00 +19°C° 0 mm 10 mps 765 mmHg 59%
    01:00 +19°C° 0 mm 11 mps 765 mmHg 55%
    02:00 +19°C° 0 mm 11 mps 765 mmHg 52%
    03:00 +18°C° 0 mm 12 mps 765 mmHg 52%
    04:00 +18°C° 0 mm 12 mps 765 mmHg 53%
    05:00 +18°C° 0 mm 12 mps 765 mmHg 54%
    06:00 +18°C° 0 mm 13 mps 766 mmHg 53%
    07:00 +18°C° 0 mm 13 mps 766 mmHg 52%
    08:00 +18°C° 0 mm 13 mps 766 mmHg 52%
    09:00 +18°C° 0 mm 13 mps 767 mmHg 49%
    10:00 +19°C° 0 mm 14 mps 767 mmHg 47%
    11:00 +19°C° 0 mm 14 mps 767 mmHg 44%
    12:00 +19°C° 0 mm 14 mps 767 mmHg 43%
    13:00 +19°C° 0 mm 14 mps 767 mmHg 41%
    14:00 +19°C° 0 mm 14 mps 766 mmHg 39%
    15:00 +19°C° 0 mm 14 mps 766 mmHg 39%
    16:00 +18°C° 0 mm 14 mps 766 mmHg 40%
    17:00 +18°C° 0 mm 13 mps 766 mmHg 40%
    18:00 +18°C° 0 mm 13 mps 766 mmHg 41%
    19:00 +17°C° 0 mm 13 mps 766 mmHg 43%
    20:00 +17°C° 0 mm 12 mps 766 mmHg 44%
    21:00 +17°C° 0 mm 13 mps 766 mmHg 45%
    22:00 +17°C° 0 mm 13 mps 766 mmHg 46%
    23:00 +15°C° 0 mm 14 mps 766 mmHg 47%

    27 September, Thursday

    Time Temperature Precipitation Wind Pressure Humidity
    00:00 +15°C° 0.1 mm 14 mps 765 mmHg 50%
    01:00 +15°C° 0.1 mm 14 mps 765 mmHg 52%
    02:00 +15°C° 0.1 mm 14 mps 764 mmHg 54%
    03:00 +15°C° 0.3 mm 15 mps 764 mmHg 56%
    04:00 +15°C° 0.3 mm 15 mps 763 mmHg 58%
    05:00 +15°C° 0.3 mm 16 mps 763 mmHg 60%
    06:00 +15°C° 0.7 mm 16 mps 762 mmHg 61%
    07:00 +15°C° 0.7 mm 16 mps 762 mmHg 63%
    08:00 +15°C° 0.7 mm 17 mps 761 mmHg 65%
    09:00 +15°C° 1.9 mm 17 mps 761 mmHg 67%
    10:00 +15°C° 1.9 mm 17 mps 761 mmHg 69%
    11:00 +15°C° 1.9 mm 17 mps 760 mmHg 71%
    12:00 +15°C° 2.5 mm 16 mps 760 mmHg 71%
    13:00 +15°C° 2.5 mm 15 mps 759 mmHg 72%
    14:00 +15°C° 2.5 mm 14 mps 759 mmHg 72%
    15:00 +17°C° 2.7 mm 13 mps 759 mmHg 72%
    16:00 +17°C° 2.7 mm 12 mps 758 mmHg 71%
    17:00 +18°C° 2.7 mm 11 mps 758 mmHg 71%
    18:00 +18°C° 2.9 mm 11 mps 758 mmHg 72%
    19:00 +18°C° 2.9 mm 10 mps 758 mmHg 73%
    20:00 +19°C° 2.9 mm 10 mps 758 mmHg 75%
    21:00 +19°C° 1.9 mm 10 mps 758 mmHg 76%
    22:00 +19°C° 1.9 mm 9 mps 758 mmHg 76%
    23:00 +19°C° 1.9 mm 9 mps 757 mmHg 77%
    Show more